This is the latest recevied weather packets stored in our database for station/object KE5WTH-14. If no packets are shown the sender has not sent any weather packets the latest 10 day(s).
| Time | Temp. | Humidity | Pressure | Rain* | Wind** | Luminosity | Snow |
|---|---|---|---|---|---|---|---|
| 1778349124 | 27.78° C | 69% | 1010.5 hPa | 0 mm | - | 1071 W/m² | - |
| 1778349064 | 27.78° C | 69% | 1010.6 hPa | 0 mm | - | 1085 W/m² | - |
| 1778349005 | 27.78° C | 69% | 1010.6 hPa | 0 mm | - | 243 W/m² | - |
| 1778348944 | 27.78° C | 72% | 1010.6 hPa | 0 mm | - | 343 W/m² | - |
| 1778348887 | 27.78° C | 70% | 1010.7 hPa | 0 mm | - | 315 W/m² | - |
| 1778348824 | 27.78° C | 71% | 1010.7 hPa | 0 mm | - | 1027 W/m² | - |
| 1778348764 | 27.78° C | 70% | 1010.7 hPa | 0 mm | - | 1097 W/m² | - |
| 1778348705 | 27.78° C | 71% | 1010.6 hPa | 0 mm | - | 1102 W/m² | - |
| 1778348645 | 27.78° C | 71% | 1010.7 hPa | 0 mm | - | 364 W/m² | - |
| 1778348583 | 27.78° C | 72% | 1010.7 hPa | 0 mm | - | 1095 W/m² | - |
| 1778348519 | 27.22° C | 72% | 1010.7 hPa | 0 mm | - | 1095 W/m² | - |
| 1778348454 | 27.22° C | 71% | 1010.7 hPa | 0 mm | - | 1083 W/m² | - |
| 1778348392 | 27.22° C | 71% | 1010.7 hPa | 0 mm | - | 1062 W/m² | - |
| 1778348331 | 27.22° C | 72% | 1010.8 hPa | 0 mm | - | 1039 W/m² | - |
| 1778348269 | 27.22° C | 73% | 1010.7 hPa | 0 mm | - | 1006 W/m² | - |
| 1778348208 | 27.22° C | 73% | 1010.7 hPa | 0 mm | - | 990 W/m² | - |
| 1778348146 | 27.22° C | 72% | 1010.7 hPa | 0 mm | - | 862 W/m² | - |
| 1778348085 | 27.22° C | 72% | 1010.7 hPa | 0 mm | - | 862 W/m² | - |
| 1778348024 | 27.22° C | 72% | 1010.7 hPa | 0 mm | - | 378 W/m² | - |
| 1778347960 | 27.22° C | 74% | 1010.8 hPa | 0 mm | - | 431 W/m² | - |
| 1778347899 | 27.22° C | 76% | 1010.8 hPa | 0 mm | - | 1008 W/m² | - |
| 1778347854 | 26.67° C | 74% | 1010.8 hPa | 0 mm | - | 1020 W/m² | - |
| 1778347828 | 26.67° C | 74% | 1010.8 hPa | 0 mm | - | 993 W/m² | - |
| 1778347797 | 26.67° C | 74% | 1010.9 hPa | 0 mm | - | 932 W/m² | - |
| 1778347767 | 26.67° C | 75% | 1010.8 hPa | 0 mm | - | 897 W/m² | - |
* Rain latest hour (hover to see other rain measurements)
** Current wind speed in m/s (hover to see current wind gust speed)